Flag for France Weather past 2 weeks in Paris, France

Now
55 °F

Clear.


Feels Like: 55 °F
Forecast: 54 / 74 °F
Wind: No wind

Location: Villacoublay

Current Time: Oct 1, 2014 at 8:58:55 AM

Latest Report: Oct 1, 2014 at 8:30 AM


Visibility: 6 mi

Pressure: 30.30 "Hg

Humidity: 88%

Dew point: 52 °F

Location of ParisLocation

Historic Weather in Paris — Graph

°F

Paris temperature yesterday

Maximum temperature yesterday: 73 °F (at 3:00 PM)
Minimum temperature yesterday: 54 °F (at 7:30 AM)
Average temperature yesterday: 63 °F

Past Weeks' High & Low Weather Summary

 TemperatureHumidityPressure
High79 °F (Sep 17, 5:00 PM)100% (Sep 21, 8:00 AM)30.33 "Hg (Sep 21, 8:00 AM)
Low46 °F (Sep 24, 6:30 AM)42% (Sep 16, 5:00 PM)29.74 "Hg (Sep 18, 7:30 AM)
Average63 °F73%30.09 "Hg
* Reported Sep 16 8:00 AM — Oct 1 8:00 AM, Paris, Weather by CustomWeather, © 2014

Note: Actual official high and low records may vary slightly from our data, if they occured in-between our weather recording intervals... More about our weather records

Advertising

Paris weather history for previous 24 hours

 ConditionsComfort  
Time TempWeatherWind HumidityBarometerVisibility
8:00 AM
Oct 1
54 °FClear.1 mph94%30.30 "Hg5 mi
7:30 AM55 °FClear.2 mph88%30.30 "Hg5 mi
7:00 AM55 °FClear.No wind88%30.30 "Hg6 mi
6:30 AM55 °FClear.No wind88%30.30 "Hg6 mi
6:00 AM55 °FClear.3 mph94%30.30 "HgN/A
5:30 AM55 °FClear.3 mph94%30.30 "HgN/A
5:00 AM55 °FClear.3 mph94%30.30 "HgN/A
4:30 AM57 °FClear.2 mph88%30.30 "HgN/A
4:00 AM57 °FClear.5 mph88%30.30 "HgN/A
3:30 AM59 °FClear.No wind82%30.30 "HgN/A
3:00 AM59 °FClear.2 mph88%30.30 "HgN/A
2:30 AM59 °FPassing clouds.No wind88%30.30 "HgN/A
2:00 AM61 °FMostly cloudy.3 mph83%30.30 "HgN/A
1:30 AM61 °FPassing clouds.3 mph83%30.30 "HgN/A
1:00 AM61 °FPassing clouds.2 mph83%30.30 "HgN/A
12:30 AM59 °FPassing clouds.2 mph88%30.30 "HgN/A
12:00 AM59 °FPassing clouds.No wind88%30.30 "HgN/A
11:30 PM
Sep 30
59 °FPassing clouds.2 mph88%30.30 "HgN/A
10:30 PM61 °FClear.2 mph83%30.30 "HgN/A
10:00 PM63 °FClear.3 mph83%30.30 "HgN/A
9:30 PM63 °FClear.3 mph83%30.30 "HgN/A
9:00 PM64 °FPassing clouds.3 mph78%30.30 "HgN/A
8:30 PM66 °FPartly sunny.3 mph73%30.30 "HgN/A
8:00 PM66 °FPartly sunny.2 mph73%30.27 "HgN/A
7:30 PM66 °FPartly sunny.2 mph68%30.27 "HgN/A
7:00 PM68 °FScattered clouds.3 mph69%30.27 "HgN/A
6:30 PM70 °FClear.3 mph60%30.27 "HgN/A
6:00 PM70 °FClear.5 mph60%30.27 "HgN/A
5:30 PM72 °FPartly sunny.5 mph61%30.27 "HgN/A
5:00 PM72 °FBroken clouds.5 mph57%30.27 "HgN/A
4:30 PM73 °FPassing clouds.5 mph57%30.27 "HgN/A
4:00 PM73 °FPassing clouds.5 mph57%30.27 "HgN/A
3:30 PM72 °FScattered clouds.6 mph61%30.30 "HgN/A
3:00 PM73 °FBroken clouds.5 mph61%30.30 "HgN/A
2:30 PM70 °FPartly sunny.1 mph69%30.30 "HgN/A
2:00 PM70 °FPartly sunny.6 mph69%30.30 "HgN/A
1:30 PM70 °FPartly sunny.7 mph69%30.30 "HgN/A
1:00 PM70 °FBroken clouds.5 mph69%30.30 "HgN/A
12:30 PM68 °FPassing clouds.3 mph73%30.30 "HgN/A
12:00 PM68 °FPassing clouds.2 mph78%30.30 "HgN/A
11:30 AM64 °FClear.3 mph83%30.30 "HgN/A
11:00 AM63 °FClear.No wind88%30.30 "HgN/A
10:30 AM61 °FClear.2 mph88%30.30 "Hg6 mi
10:00 AM59 °FClear.2 mph94%30.30 "Hg6 mi
9:30 AM59 °FClear.2 mph94%30.30 "Hg5 mi
9:00 AM57 °FFog.No wind94%30.27 "Hg3 mi
8:30 AM55 °FLight fog.2 mph94%30.27 "Hg1 mi
8:00 AM55 °FFog.2 mph94%30.27 "Hg0 mi
Weather by CustomWeather, © 2014

See weather overviewHow to use our weather pages